Location: ?????
(32.7281°N, 34.9563°E)
Time: 18:17:18
(UTC+00:00)

SL-16 R/B - Pass Details

Date: 29 October 2020
Orbit: 842 x 846 km, 71.0° (Epoch: 29 November)

Event Time Altitude Azimuth Distance (km) Brightness Sun altitude
Rises 16:54:08 0° 182° (S) 3,382 5.4 -26.2°
Reaches altitude 10° 16:56:39 10° 176° (S) 2,451 4.6 -26.8°
Enters shadow 16:57:32 15° 173° (S) 2,139 4.2 -27.0°
